Back to catalog

STARLINK-32736

AliveCommunicationsVLEO
NORAD 62443·PAYLOAD·🇺🇸 United States

Launched Dec 29, 2024 from Vandenberg Space Force Base

Loading…

Next Passes (next 24 hours)

TLE

FreshSource: CelesTrak SupGP

Epoch: Sep 14, 2026, 22:47 UTC

1 62443C 24251M   26257.94979167 -.00067959  00000+0 -20074-2 0  2576
2 62443  53.1583 175.5088 0001293  86.1334 321.1378 15.34432161    16

Track STARLINK-32736 in real time with AllMySat

Download on the App Store